Year,Month,Day,Hour,Minute,Value (Times are PST for temperature in C)
2015,03,28,00,00,10.20
2015,03,28,00,01,10.20
2015,03,28,00,02,10.20
2015,03,28,00,03,10.30
2015,03,28,00,04,10.30
2015,03,28,00,05,10.30
2015,03,28,00,06,10.30
2015,03,28,00,07,10.30
2015,03,28,00,08,10.40
2015,03,28,00,09,10.40
2015,03,28,00,10,10.40
2015,03,28,00,11,10.40
2015,03,28,00,12,10.40
2015,03,28,00,13,10.40
2015,03,28,00,14,10.40
2015,03,28,00,15,10.50
2015,03,28,00,16,10.50
2015,03,28,00,17,10.50
2015,03,28,00,18,10.50
2015,03,28,00,19,10.50
2015,03,28,00,20,10.50
2015,03,28,00,21,10.60
2015,03,28,00,22,10.60
2015,03,28,00,23,10.50
2015,03,28,00,24,10.50
2015,03,28,00,25,10.50
2015,03,28,00,26,10.50
2015,03,28,00,27,10.40
2015,03,28,00,28,10.40
2015,03,28,00,29,10.40
2015,03,28,00,30,10.30
2015,03,28,00,31,10.30
2015,03,28,00,32,10.20
2015,03,28,00,33,10.20
2015,03,28,00,34,10.20
2015,03,28,00,35,10.10
2015,03,28,00,36,10.10
2015,03,28,00,37,10.10
2015,03,28,00,38,10.10
2015,03,28,00,39,10.10
2015,03,28,00,40,10.00
2015,03,28,00,41,10.00
2015,03,28,00,42,10.00
2015,03,28,00,43,10.00
2015,03,28,00,44,10.00
2015,03,28,00,45,10.00
2015,03,28,00,46,9.90
2015,03,28,00,47,9.90
2015,03,28,00,48,9.90
2015,03,28,00,49,9.90
2015,03,28,00,50,9.90
2015,03,28,00,51,9.90
2015,03,28,00,52,9.90
2015,03,28,00,53,9.90
2015,03,28,00,54,9.90
2015,03,28,00,55,9.90
2015,03,28,00,56,9.90
2015,03,28,00,57,9.90
2015,03,28,00,58,9.90
2015,03,28,00,59,9.90
2015,03,28,01,00,9.90
2015,03,28,01,01,9.90
2015,03,28,01,02,9.80
2015,03,28,01,03,9.80
2015,03,28,01,04,9.80
2015,03,28,01,05,9.80
2015,03,28,01,06,9.80
2015,03,28,01,07,9.80
2015,03,28,01,08,9.80
2015,03,28,01,09,9.80
2015,03,28,01,10,9.80
2015,03,28,01,11,9.80
2015,03,28,01,12,9.80
2015,03,28,01,13,9.80
2015,03,28,01,14,9.80
2015,03,28,01,15,9.80
2015,03,28,01,16,9.80
2015,03,28,01,17,9.80
2015,03,28,01,18,9.80
2015,03,28,01,19,9.80
2015,03,28,01,20,9.80
2015,03,28,01,21,9.80
2015,03,28,01,22,9.80
2015,03,28,01,23,9.80
2015,03,28,01,24,9.80
2015,03,28,01,25,9.80
2015,03,28,01,26,9.70
2015,03,28,01,27,9.70
2015,03,28,01,28,9.70
2015,03,28,01,29,9.70
2015,03,28,01,30,9.70
2015,03,28,01,31,9.70
2015,03,28,01,32,9.70
2015,03,28,01,33,9.70
2015,03,28,01,34,9.70
2015,03,28,01,35,9.70
2015,03,28,01,36,9.70
2015,03,28,01,37,9.70
2015,03,28,01,38,9.70
2015,03,28,01,39,9.70
2015,03,28,01,40,9.70
2015,03,28,01,41,9.70
2015,03,28,01,42,9.70
2015,03,28,01,43,9.70
2015,03,28,01,44,9.70
2015,03,28,01,45,9.70
2015,03,28,01,46,9.70
2015,03,28,01,47,9.70
2015,03,28,01,48,9.80
2015,03,28,01,49,9.80
2015,03,28,01,50,9.80
2015,03,28,01,51,9.80
2015,03,28,01,52,9.80
2015,03,28,01,53,9.80
2015,03,28,01,54,9.80
2015,03,28,01,55,9.80
2015,03,28,01,56,9.80
2015,03,28,01,57,9.80
2015,03,28,01,58,9.80
2015,03,28,01,59,9.80
2015,03,28,02,00,9.80
2015,03,28,02,01,9.80
2015,03,28,02,02,9.80
2015,03,28,02,03,9.80
2015,03,28,02,04,9.80
2015,03,28,02,05,9.80
2015,03,28,02,06,9.80
2015,03,28,02,07,9.80
2015,03,28,02,08,9.80
2015,03,28,02,09,9.80
2015,03,28,02,10,9.80
2015,03,28,02,11,9.80
2015,03,28,02,12,9.80
2015,03,28,02,13,9.80
2015,03,28,02,14,9.80
2015,03,28,02,15,9.80
2015,03,28,02,16,9.80
2015,03,28,02,17,9.80
2015,03,28,02,18,9.80
2015,03,28,02,19,9.80
2015,03,28,02,20,9.80
2015,03,28,02,21,9.80
2015,03,28,02,22,9.80
2015,03,28,02,23,9.80
2015,03,28,02,24,9.80
2015,03,28,02,25,9.80
2015,03,28,02,26,9.80
2015,03,28,02,27,9.80
2015,03,28,02,28,9.80
2015,03,28,02,29,9.80
2015,03,28,02,30,9.80
2015,03,28,02,31,9.80
2015,03,28,02,32,9.80
2015,03,28,02,33,9.80
2015,03,28,02,34,9.80
2015,03,28,02,35,9.80
2015,03,28,02,36,9.80
2015,03,28,02,37,9.90
2015,03,28,02,38,9.90
2015,03,28,02,39,10.00
2015,03,28,02,40,10.00
2015,03,28,02,41,10.10
2015,03,28,02,42,10.10
2015,03,28,02,43,10.10
2015,03,28,02,44,10.10
2015,03,28,02,45,10.10
2015,03,28,02,46,10.10
2015,03,28,02,47,10.10
2015,03,28,02,48,10.10
2015,03,28,02,49,10.10
2015,03,28,02,50,10.00
2015,03,28,02,51,10.00
2015,03,28,02,52,10.00
2015,03,28,02,53,10.00
2015,03,28,02,54,10.00
2015,03,28,02,55,10.00
2015,03,28,02,56,9.90
2015,03,28,02,57,9.90
2015,03,28,02,58,9.90
2015,03,28,02,59,9.90
2015,03,28,03,00,10.00
2015,03,28,03,01,10.00
2015,03,28,03,02,10.00
2015,03,28,03,03,10.00
2015,03,28,03,04,10.00
2015,03,28,03,05,10.00
2015,03,28,03,06,10.00
2015,03,28,03,07,10.00
2015,03,28,03,08,10.00
2015,03,28,03,09,10.00
2015,03,28,03,10,10.00
2015,03,28,03,11,10.00
2015,03,28,03,12,10.10
2015,03,28,03,13,10.00
2015,03,28,03,14,10.00
2015,03,28,03,15,10.00
2015,03,28,03,16,10.00
2015,03,28,03,17,10.00
2015,03,28,03,18,10.00
2015,03,28,03,19,10.00
2015,03,28,03,20,10.00
2015,03,28,03,21,10.00
2015,03,28,03,22,10.00
2015,03,28,03,23,10.00
2015,03,28,03,24,10.00
2015,03,28,03,25,10.00
2015,03,28,03,26,10.00
2015,03,28,03,27,10.00
2015,03,28,03,28,10.10
2015,03,28,03,29,10.10
2015,03,28,03,30,10.10
2015,03,28,03,31,10.10
2015,03,28,03,32,10.10
2015,03,28,03,33,10.10
2015,03,28,03,34,10.10
2015,03,28,03,35,10.10
2015,03,28,03,36,10.10
2015,03,28,03,37,10.10
2015,03,28,03,38,10.10
2015,03,28,03,39,10.00
2015,03,28,03,40,10.00
2015,03,28,03,41,10.00
2015,03,28,03,42,10.00
2015,03,28,03,43,10.00
2015,03,28,03,44,10.00
2015,03,28,03,45,10.00
2015,03,28,03,46,10.00
2015,03,28,03,47,10.00
2015,03,28,03,48,10.00
2015,03,28,03,49,10.00
2015,03,28,03,50,10.10
2015,03,28,03,51,10.10
2015,03,28,03,52,10.00
2015,03,28,03,53,10.00
2015,03,28,03,54,10.00
2015,03,28,03,55,10.00
2015,03,28,03,56,10.00
2015,03,28,03,57,10.00
2015,03,28,03,58,10.00
2015,03,28,03,59,9.90
2015,03,28,04,00,9.90
2015,03,28,04,01,9.90
2015,03,28,04,02,9.80
2015,03,28,04,03,9.80
2015,03,28,04,04,9.80
2015,03,28,04,05,9.80
2015,03,28,04,06,9.80
2015,03,28,04,07,9.80
2015,03,28,04,08,9.80
2015,03,28,04,09,9.80
2015,03,28,04,10,9.80
2015,03,28,04,11,9.90
2015,03,28,04,12,9.90
2015,03,28,04,13,9.90
2015,03,28,04,14,9.90
2015,03,28,04,15,9.90
2015,03,28,04,16,9.90
2015,03,28,04,17,9.90
2015,03,28,04,18,9.90
2015,03,28,04,19,9.90
2015,03,28,04,20,9.90
2015,03,28,04,21,10.00
2015,03,28,04,22,10.00
2015,03,28,04,23,10.00
2015,03,28,04,24,10.00
2015,03,28,04,25,10.10
2015,03,28,04,26,10.10
2015,03,28,04,27,10.10
2015,03,28,04,28,10.10
2015,03,28,04,29,10.10
2015,03,28,04,30,10.10
2015,03,28,04,31,10.10
2015,03,28,04,32,10.10
2015,03,28,04,33,10.10
2015,03,28,04,34,10.20
2015,03,28,04,35,10.20
2015,03,28,04,36,10.20
2015,03,28,04,37,10.20
2015,03,28,04,38,10.20
2015,03,28,04,39,10.20
2015,03,28,04,40,10.20
2015,03,28,04,41,10.20
2015,03,28,04,42,10.20
2015,03,28,04,43,10.20
2015,03,28,04,44,10.20
2015,03,28,04,45,10.20
2015,03,28,04,46,10.20
2015,03,28,04,47,10.20
2015,03,28,04,48,10.20
2015,03,28,04,49,10.20
2015,03,28,04,50,10.20
2015,03,28,04,51,10.20
2015,03,28,04,52,10.10
2015,03,28,04,53,10.10
2015,03,28,04,54,10.10
2015,03,28,04,55,10.10
2015,03,28,04,56,10.10
2015,03,28,04,57,10.00
2015,03,28,04,58,10.00
2015,03,28,04,59,10.00
2015,03,28,05,00,9.90
2015,03,28,05,01,9.90
2015,03,28,05,02,9.90
2015,03,28,05,03,9.90
2015,03,28,05,04,9.90
2015,03,28,05,05,9.90
2015,03,28,05,06,9.90
2015,03,28,05,07,9.80
2015,03,28,05,08,9.80
2015,03,28,05,09,9.80
2015,03,28,05,10,9.80
2015,03,28,05,11,9.80
2015,03,28,05,12,9.80
2015,03,28,05,13,9.80
2015,03,28,05,14,9.90
2015,03,28,05,15,9.90
2015,03,28,05,16,9.90
2015,03,28,05,17,9.90
2015,03,28,05,18,9.90
2015,03,28,05,19,9.90
2015,03,28,05,20,9.90
2015,03,28,05,21,9.90
2015,03,28,05,22,9.90
2015,03,28,05,23,9.90
2015,03,28,05,24,9.90
2015,03,28,05,25,9.90
2015,03,28,05,26,9.90
2015,03,28,05,27,9.90
2015,03,28,05,28,9.90
2015,03,28,05,29,9.90
2015,03,28,05,30,9.90
2015,03,28,05,31,9.90
2015,03,28,05,32,9.90
2015,03,28,05,33,9.90
2015,03,28,05,34,9.90
2015,03,28,05,35,9.90
2015,03,28,05,36,9.90
2015,03,28,05,37,9.90
2015,03,28,05,38,9.90
2015,03,28,05,39,9.90
2015,03,28,05,40,9.90
2015,03,28,05,41,9.90
2015,03,28,05,42,9.80
2015,03,28,05,43,9.80
2015,03,28,05,44,9.80
2015,03,28,05,45,9.90
2015,03,28,05,46,9.90
2015,03,28,05,47,9.80
2015,03,28,05,48,9.90
2015,03,28,05,49,9.80
2015,03,28,05,50,9.80
2015,03,28,05,51,9.80
2015,03,28,05,52,9.80
2015,03,28,05,53,9.80
2015,03,28,05,54,9.80
2015,03,28,05,55,9.80
2015,03,28,05,56,9.80
2015,03,28,05,57,9.80
2015,03,28,05,58,9.80
2015,03,28,05,59,9.80
2015,03,28,06,00,9.80
2015,03,28,06,01,9.80
2015,03,28,06,02,9.80
2015,03,28,06,03,9.80
2015,03,28,06,04,9.80
2015,03,28,06,05,9.80
2015,03,28,06,06,9.80
2015,03,28,06,07,9.80
2015,03,28,06,08,9.80
2015,03,28,06,09,9.80
2015,03,28,06,10,9.80
2015,03,28,06,11,9.80
2015,03,28,06,12,9.70
2015,03,28,06,13,9.70
2015,03,28,06,14,9.70
2015,03,28,06,15,9.70
2015,03,28,06,16,9.70
2015,03,28,06,17,9.70
2015,03,28,06,18,9.70
2015,03,28,06,19,9.70
2015,03,28,06,20,9.70
2015,03,28,06,21,9.70
2015,03,28,06,22,9.70
2015,03,28,06,23,9.70
2015,03,28,06,24,9.70
2015,03,28,06,25,9.70
2015,03,28,06,26,9.70
2015,03,28,06,27,9.70
2015,03,28,06,28,9.60
2015,03,28,06,29,9.70
2015,03,28,06,30,9.70
2015,03,28,06,31,9.60
2015,03,28,06,32,9.60
2015,03,28,06,33,9.60
2015,03,28,06,34,9.60
2015,03,28,06,35,9.60
2015,03,28,06,36,9.60
2015,03,28,06,37,9.60
2015,03,28,06,38,9.60
2015,03,28,06,39,9.60
2015,03,28,06,40,9.60
2015,03,28,06,41,9.60
2015,03,28,06,42,9.60
2015,03,28,06,43,9.60
2015,03,28,06,44,9.60
2015,03,28,06,45,9.60
2015,03,28,06,46,9.70
2015,03,28,06,47,9.70
2015,03,28,06,48,9.70
2015,03,28,06,49,9.70
2015,03,28,06,50,9.70
2015,03,28,06,51,9.70
2015,03,28,06,52,9.70
2015,03,28,06,53,9.70
2015,03,28,06,54,9.70
2015,03,28,06,55,9.70
2015,03,28,06,56,9.70
2015,03,28,06,57,9.70
2015,03,28,06,58,9.80
2015,03,28,06,59,9.80
2015,03,28,07,00,9.80
2015,03,28,07,01,9.80
2015,03,28,07,02,9.80
2015,03,28,07,03,9.80
2015,03,28,07,04,9.80
2015,03,28,07,05,9.80
2015,03,28,07,06,9.80
2015,03,28,07,07,9.80
2015,03,28,07,08,9.80
2015,03,28,07,09,9.80
2015,03,28,07,10,9.80
2015,03,28,07,11,9.80
2015,03,28,07,12,9.80
2015,03,28,07,13,9.80
2015,03,28,07,14,9.70
2015,03,28,07,15,9.80
2015,03,28,07,16,9.80
2015,03,28,07,17,9.80
2015,03,28,07,18,9.80
2015,03,28,07,19,9.80
2015,03,28,07,20,9.80
2015,03,28,07,21,9.80
2015,03,28,07,22,9.80
2015,03,28,07,23,9.80
2015,03,28,07,24,9.70
2015,03,28,07,25,9.70
2015,03,28,07,26,9.70
2015,03,28,07,27,9.70
2015,03,28,07,28,9.70
2015,03,28,07,29,9.70
2015,03,28,07,30,9.70
2015,03,28,07,31,9.70
2015,03,28,07,32,9.70
2015,03,28,07,33,9.70
2015,03,28,07,34,9.70
2015,03,28,07,35,9.70
2015,03,28,07,36,9.70
2015,03,28,07,37,9.70
2015,03,28,07,38,9.70
2015,03,28,07,39,9.70
2015,03,28,07,40,9.70
2015,03,28,07,41,9.70
2015,03,28,07,42,9.70
2015,03,28,07,43,9.70
2015,03,28,07,44,9.70
2015,03,28,07,45,9.70
2015,03,28,07,46,9.60
2015,03,28,07,47,9.60
2015,03,28,07,48,9.70
2015,03,28,07,49,9.70
2015,03,28,07,50,9.70
2015,03,28,07,51,9.70
2015,03,28,07,52,9.70
2015,03,28,07,53,9.60
2015,03,28,07,54,9.60
2015,03,28,07,55,9.60
2015,03,28,07,56,9.60
2015,03,28,07,57,9.60
2015,03,28,07,58,9.60
2015,03,28,07,59,9.60
2015,03,28,08,00,9.60
2015,03,28,08,01,9.60
2015,03,28,08,02,9.50
2015,03,28,08,03,9.50
2015,03,28,08,04,9.60
2015,03,28,08,05,9.60
2015,03,28,08,06,9.60
2015,03,28,08,07,9.70
2015,03,28,08,08,9.70
2015,03,28,08,09,9.80
2015,03,28,08,10,9.80
2015,03,28,08,11,9.80
2015,03,28,08,12,9.80
2015,03,28,08,13,9.90
2015,03,28,08,14,9.90
2015,03,28,08,15,9.90
2015,03,28,08,16,9.90
2015,03,28,08,17,9.90
2015,03,28,08,18,10.00
2015,03,28,08,19,10.00
2015,03,28,08,20,10.00
2015,03,28,08,21,10.00
2015,03,28,08,22,10.10
2015,03,28,08,23,10.10
2015,03,28,08,24,10.10
2015,03,28,08,25,10.10
2015,03,28,08,26,10.20
2015,03,28,08,27,10.20
2015,03,28,08,28,10.20
2015,03,28,08,29,10.20
2015,03,28,08,30,10.30
2015,03,28,08,31,10.30
2015,03,28,08,32,10.30
2015,03,28,08,33,10.30
2015,03,28,08,34,10.30
2015,03,28,08,35,10.30
2015,03,28,08,36,10.30
2015,03,28,08,37,10.20
2015,03,28,08,38,10.20
2015,03,28,08,39,10.20
2015,03,28,08,40,10.20
2015,03,28,08,41,10.20
2015,03,28,08,42,10.20
2015,03,28,08,43,10.30
2015,03,28,08,44,10.30
2015,03,28,08,45,10.30
2015,03,28,08,46,10.30
2015,03,28,08,47,10.30
2015,03,28,08,48,10.30
2015,03,28,08,49,10.30
2015,03,28,08,50,10.30
2015,03,28,08,51,10.40
2015,03,28,08,52,10.40
2015,03,28,08,53,10.40
2015,03,28,08,54,10.40
2015,03,28,08,55,10.40
2015,03,28,08,56,10.40
2015,03,28,08,57,10.40
2015,03,28,08,58,10.50
2015,03,28,08,59,10.50
2015,03,28,09,00,10.50
2015,03,28,09,01,10.50
2015,03,28,09,02,10.50
2015,03,28,09,03,10.50
2015,03,28,09,04,10.60
2015,03,28,09,05,10.60
2015,03,28,09,06,10.60
2015,03,28,09,07,10.70
2015,03,28,09,08,10.70
2015,03,28,09,09,10.70
2015,03,28,09,10,10.70
2015,03,28,09,11,10.70
2015,03,28,09,12,10.80
2015,03,28,09,13,10.80
2015,03,28,09,14,10.80
2015,03,28,09,15,10.80
2015,03,28,09,16,10.80
2015,03,28,09,17,10.80
2015,03,28,09,18,10.80
2015,03,28,09,19,10.80
2015,03,28,09,20,10.80
2015,03,28,09,21,10.80
2015,03,28,09,22,10.80
2015,03,28,09,23,10.80
2015,03,28,09,24,10.90
2015,03,28,09,25,10.90
2015,03,28,09,26,10.90
2015,03,28,09,27,10.90
2015,03,28,09,28,10.90
2015,03,28,09,29,10.90
2015,03,28,09,30,10.90
2015,03,28,09,31,11.00
2015,03,28,09,32,11.00
2015,03,28,09,33,11.00
2015,03,28,09,34,11.10
2015,03,28,09,35,11.10
2015,03,28,09,36,11.10
2015,03,28,09,37,11.10
2015,03,28,09,38,11.10
2015,03,28,09,39,11.10
2015,03,28,09,40,11.20
2015,03,28,09,41,11.20
2015,03,28,09,42,11.20
2015,03,28,09,43,11.20
2015,03,28,09,44,11.20
2015,03,28,09,45,11.20
2015,03,28,09,46,11.20
2015,03,28,09,47,11.20
2015,03,28,09,48,11.20
2015,03,28,09,49,11.20
2015,03,28,09,50,11.20
2015,03,28,09,51,11.20
2015,03,28,09,52,11.20
2015,03,28,09,53,11.20
2015,03,28,09,54,11.20
2015,03,28,09,55,11.20
2015,03,28,09,56,11.30
2015,03,28,09,57,11.30
2015,03,28,09,58,11.30
2015,03,28,09,59,11.30
2015,03,28,10,00,11.30
2015,03,28,10,01,11.30
2015,03,28,10,02,11.40
2015,03,28,10,03,11.40
2015,03,28,10,04,11.40
2015,03,28,10,05,11.50
2015,03,28,10,06,11.50
2015,03,28,10,07,11.50
2015,03,28,10,08,11.50
2015,03,28,10,09,11.50
2015,03,28,10,10,11.60
2015,03,28,10,11,11.60
2015,03,28,10,12,11.60
2015,03,28,10,13,11.60
2015,03,28,10,14,11.60
2015,03,28,10,15,11.70
2015,03,28,10,16,11.70
2015,03,28,10,17,11.70
2015,03,28,10,18,11.70
2015,03,28,10,19,11.70
2015,03,28,10,20,11.70
2015,03,28,10,21,11.70
2015,03,28,10,22,11.60
2015,03,28,10,23,11.60
2015,03,28,10,24,11.60
2015,03,28,10,25,11.60
2015,03,28,10,26,11.60
2015,03,28,10,27,11.60
2015,03,28,10,28,11.60
2015,03,28,10,29,11.60
2015,03,28,10,30,11.60
2015,03,28,10,31,11.60
2015,03,28,10,32,11.70
2015,03,28,10,33,11.60
2015,03,28,10,34,11.60
2015,03,28,10,35,11.60
2015,03,28,10,36,11.50
2015,03,28,10,37,11.50
2015,03,28,10,38,11.40
2015,03,28,10,39,11.40
2015,03,28,10,40,11.30
2015,03,28,10,41,11.30
2015,03,28,10,42,11.20
2015,03,28,10,43,11.20
2015,03,28,10,44,11.20
2015,03,28,10,45,11.20
2015,03,28,10,46,11.10
2015,03,28,10,47,11.10
2015,03,28,10,48,11.10
2015,03,28,10,49,11.10
2015,03,28,10,50,11.00
2015,03,28,10,51,11.00
2015,03,28,10,52,10.90
2015,03,28,10,53,10.90
2015,03,28,10,54,10.80
2015,03,28,10,55,10.80
2015,03,28,10,56,10.80
2015,03,28,10,57,10.70
2015,03,28,10,58,10.70
2015,03,28,10,59,10.70
2015,03,28,11,00,10.70
2015,03,28,11,01,10.70
2015,03,28,11,02,10.60
2015,03,28,11,03,10.60
2015,03,28,11,04,10.60
2015,03,28,11,05,10.60
2015,03,28,11,06,10.60
2015,03,28,11,07,10.60
2015,03,28,11,08,10.60
2015,03,28,11,09,10.60
2015,03,28,11,10,10.60
2015,03,28,11,11,10.60
2015,03,28,11,12,10.60
2015,03,28,11,13,10.60
2015,03,28,11,14,10.70
2015,03,28,11,15,10.70
2015,03,28,11,16,10.70
2015,03,28,11,17,10.70
2015,03,28,11,18,10.80
2015,03,28,11,19,10.80
2015,03,28,11,20,10.80
2015,03,28,11,21,10.90
2015,03,28,11,22,10.90
2015,03,28,11,23,10.90
2015,03,28,11,24,10.90
2015,03,28,11,25,11.00
2015,03,28,11,26,11.00
2015,03,28,11,27,11.00
2015,03,28,11,28,11.00
2015,03,28,11,29,11.00
2015,03,28,11,30,11.00
2015,03,28,11,31,11.00
2015,03,28,11,32,11.10
2015,03,28,11,33,11.10
2015,03,28,11,34,11.10
2015,03,28,11,35,11.10
2015,03,28,11,36,11.10
2015,03,28,11,37,11.10
2015,03,28,11,38,11.10
2015,03,28,11,39,11.10
2015,03,28,11,40,11.10
2015,03,28,11,41,11.10
2015,03,28,11,42,11.10
2015,03,28,11,43,11.10
2015,03,28,11,44,11.10
2015,03,28,11,45,11.10
2015,03,28,11,46,11.10
2015,03,28,11,47,11.20
2015,03,28,11,48,11.20
2015,03,28,11,49,11.20
2015,03,28,11,50,11.20
2015,03,28,11,51,11.20
2015,03,28,11,52,11.20
2015,03,28,11,53,11.20
2015,03,28,11,54,11.20
2015,03,28,11,55,11.20
2015,03,28,11,56,11.20
2015,03,28,11,57,11.20
2015,03,28,11,58,11.20
2015,03,28,11,59,11.20
2015,03,28,12,00,11.20
2015,03,28,12,01,11.20
2015,03,28,12,02,11.30
2015,03,28,12,03,11.30
2015,03,28,12,04,11.30
2015,03,28,12,05,11.30
2015,03,28,12,06,11.40
2015,03,28,12,07,11.40
2015,03,28,12,08,11.40
2015,03,28,12,09,11.40
2015,03,28,12,10,11.40
2015,03,28,12,11,11.50
2015,03,28,12,12,11.50
2015,03,28,12,13,11.60
2015,03,28,12,14,11.60
2015,03,28,12,15,11.50
2015,03,28,12,16,11.50
2015,03,28,12,17,11.50
2015,03,28,12,18,11.50
2015,03,28,12,19,11.60
2015,03,28,12,20,11.60
2015,03,28,12,21,11.60
2015,03,28,12,22,11.60
2015,03,28,12,23,11.70
2015,03,28,12,24,11.70
2015,03,28,12,25,11.70
2015,03,28,12,26,11.80
2015,03,28,12,27,11.80
2015,03,28,12,28,11.80
2015,03,28,12,29,11.80
2015,03,28,12,30,11.80
2015,03,28,12,31,11.80
2015,03,28,12,32,11.70
2015,03,28,12,33,11.70
2015,03,28,12,34,11.70
2015,03,28,12,35,11.70
2015,03,28,12,36,11.70
2015,03,28,12,37,11.70
2015,03,28,12,38,11.70
2015,03,28,12,39,11.70
2015,03,28,12,40,11.70
2015,03,28,12,41,11.70
2015,03,28,12,42,11.80
2015,03,28,12,43,11.80
2015,03,28,12,44,11.80
2015,03,28,12,45,11.70
2015,03,28,12,46,11.70
2015,03,28,12,47,11.70
2015,03,28,12,48,11.70
2015,03,28,12,49,11.70
2015,03,28,12,50,11.70
2015,03,28,12,51,11.70
2015,03,28,12,52,11.80
2015,03,28,12,53,11.80
2015,03,28,12,54,11.80
2015,03,28,12,55,11.80
2015,03,28,12,56,11.80
2015,03,28,12,57,11.80
2015,03,28,12,58,11.80
2015,03,28,12,59,11.80
2015,03,28,13,00,11.70
2015,03,28,13,01,11.70
2015,03,28,13,02,11.70
2015,03,28,13,03,11.70
2015,03,28,13,04,11.80
2015,03,28,13,05,11.80
2015,03,28,13,06,11.80
2015,03,28,13,07,11.80
2015,03,28,13,08,11.80
2015,03,28,13,09,11.80
2015,03,28,13,10,11.80
2015,03,28,13,11,11.80
2015,03,28,13,12,11.80
2015,03,28,13,13,11.80
2015,03,28,13,14,11.80
2015,03,28,13,15,11.80
2015,03,28,13,16,11.80
2015,03,28,13,17,11.70
2015,03,28,13,18,11.70
2015,03,28,13,19,11.70
2015,03,28,13,20,11.70
2015,03,28,13,21,11.70
2015,03,28,13,22,11.70
2015,03,28,13,23,11.70
2015,03,28,13,24,11.60
2015,03,28,13,25,11.60
2015,03,28,13,26,11.50
2015,03,28,13,27,11.40
2015,03,28,13,28,11.40
2015,03,28,13,29,11.40
2015,03,28,13,30,11.40
2015,03,28,13,31,11.30
2015,03,28,13,32,11.30
2015,03,28,13,33,11.30
2015,03,28,13,34,11.30
2015,03,28,13,35,11.30
2015,03,28,13,36,11.30
2015,03,28,13,37,11.30
2015,03,28,13,38,11.30
2015,03,28,13,39,11.30
2015,03,28,13,40,11.30
2015,03,28,13,41,11.30
2015,03,28,13,42,11.30
2015,03,28,13,43,11.30
2015,03,28,13,44,11.30
2015,03,28,13,45,11.30
2015,03,28,13,46,11.30
2015,03,28,13,47,11.30
2015,03,28,13,48,11.40
2015,03,28,13,49,11.40
2015,03,28,13,50,11.40
2015,03,28,13,51,11.40
2015,03,28,13,52,11.50
2015,03,28,13,53,11.50
2015,03,28,13,54,11.50
2015,03,28,13,55,11.60
2015,03,28,13,56,11.60
2015,03,28,13,57,11.60
2015,03,28,13,58,11.60
2015,03,28,13,59,11.60
2015,03,28,14,00,11.60
2015,03,28,14,01,11.60
2015,03,28,14,02,11.60
2015,03,28,14,03,11.60
2015,03,28,14,04,11.60
2015,03,28,14,05,11.70
2015,03,28,14,06,11.60
2015,03,28,14,07,11.60
2015,03,28,14,08,11.60
2015,03,28,14,09,11.50
2015,03,28,14,10,11.50
2015,03,28,14,11,11.60
2015,03,28,14,12,11.60
2015,03,28,14,13,11.60
2015,03,28,14,14,11.60
2015,03,28,14,15,11.60
2015,03,28,14,16,11.60
2015,03,28,14,17,11.70
2015,03,28,14,18,11.70
2015,03,28,14,19,11.70
2015,03,28,14,20,11.70
2015,03,28,14,21,11.70
2015,03,28,14,22,11.70
2015,03,28,14,23,11.70
2015,03,28,14,24,11.70
2015,03,28,14,25,11.70
2015,03,28,14,26,11.70
2015,03,28,14,27,11.80
2015,03,28,14,28,11.80
2015,03,28,14,29,11.80
2015,03,28,14,30,11.90
2015,03,28,14,31,11.90
2015,03,28,14,32,11.90
2015,03,28,14,33,11.80
2015,03,28,14,34,11.80
2015,03,28,14,35,11.80
2015,03,28,14,36,11.80
2015,03,28,14,37,11.80
2015,03,28,14,38,11.70
2015,03,28,14,39,11.80
2015,03,28,14,40,11.80
2015,03,28,14,41,11.70
2015,03,28,14,42,11.70
2015,03,28,14,43,11.60
2015,03,28,14,44,11.60
2015,03,28,14,45,11.60
2015,03,28,14,46,11.60
2015,03,28,14,47,11.60
2015,03,28,14,48,11.50
2015,03,28,14,49,11.40
2015,03,28,14,50,11.40
2015,03,28,14,51,11.40
2015,03,28,14,52,11.40
2015,03,28,14,53,11.30
2015,03,28,14,54,11.30
2015,03,28,14,55,11.30
2015,03,28,14,56,11.30
2015,03,28,14,57,11.30
2015,03,28,14,58,11.30
2015,03,28,14,59,11.30
2015,03,28,15,00,11.30
2015,03,28,15,01,11.30
2015,03,28,15,02,11.30
2015,03,28,15,03,11.30
2015,03,28,15,04,11.30
2015,03,28,15,05,11.20
2015,03,28,15,06,11.20
2015,03,28,15,07,11.10
2015,03,28,15,08,11.10
2015,03,28,15,09,11.20
2015,03,28,15,10,11.10
2015,03,28,15,11,11.10
2015,03,28,15,12,11.10
2015,03,28,15,13,11.10
2015,03,28,15,14,11.10
2015,03,28,15,15,11.10
2015,03,28,15,16,11.10
2015,03,28,15,17,11.10
2015,03,28,15,18,11.10
2015,03,28,15,19,11.00
2015,03,28,15,20,11.00
2015,03,28,15,21,11.00
2015,03,28,15,22,11.00
2015,03,28,15,23,10.90
2015,03,28,15,24,10.90
2015,03,28,15,25,10.90
2015,03,28,15,26,10.90
2015,03,28,15,27,11.00
2015,03,28,15,28,11.00
2015,03,28,15,29,10.90
2015,03,28,15,30,10.90
2015,03,28,15,31,10.80
2015,03,28,15,32,10.80
2015,03,28,15,33,10.80
2015,03,28,15,34,10.80
2015,03,28,15,35,10.80
2015,03,28,15,36,10.80
2015,03,28,15,37,10.80
2015,03,28,15,38,10.80
2015,03,28,15,39,10.80
2015,03,28,15,40,10.80
2015,03,28,15,41,10.80
2015,03,28,15,42,10.70
2015,03,28,15,43,10.70
2015,03,28,15,44,10.70
2015,03,28,15,45,10.70
2015,03,28,15,46,10.70
2015,03,28,15,47,10.70
2015,03,28,15,48,10.70
2015,03,28,15,49,10.70
2015,03,28,15,50,10.70
2015,03,28,15,51,10.70
2015,03,28,15,52,10.70
2015,03,28,15,53,10.70
2015,03,28,15,54,10.70
2015,03,28,15,55,10.70
2015,03,28,15,56,10.60
2015,03,28,15,57,10.60
2015,03,28,15,58,10.60
2015,03,28,15,59,10.50
2015,03,28,16,00,10.50
2015,03,28,16,01,10.50
2015,03,28,16,02,10.50
2015,03,28,16,03,10.50
2015,03,28,16,04,10.50
2015,03,28,16,05,10.40
2015,03,28,16,06,10.40
2015,03,28,16,07,10.40
2015,03,28,16,08,10.40
2015,03,28,16,09,10.40
2015,03,28,16,10,10.40
2015,03,28,16,11,10.40
2015,03,28,16,12,10.40
2015,03,28,16,13,10.40
2015,03,28,16,14,10.30
2015,03,28,16,15,10.30
2015,03,28,16,16,10.30
2015,03,28,16,17,10.20
2015,03,28,16,18,10.20
2015,03,28,16,19,10.20
2015,03,28,16,20,10.20
2015,03,28,16,21,10.20
2015,03,28,16,22,10.20
2015,03,28,16,23,10.10
2015,03,28,16,24,10.10
2015,03,28,16,25,10.10
2015,03,28,16,26,10.10
2015,03,28,16,27,10.10
2015,03,28,16,28,10.10
2015,03,28,16,29,10.10
2015,03,28,16,30,10.10
2015,03,28,16,31,10.10
2015,03,28,16,32,10.10
2015,03,28,16,33,10.10
2015,03,28,16,34,10.10
2015,03,28,16,35,10.00
2015,03,28,16,36,10.00
2015,03,28,16,37,10.10
2015,03,28,16,38,10.10
2015,03,28,16,39,10.10
2015,03,28,16,40,10.10
2015,03,28,16,41,10.10
2015,03,28,16,42,10.10
2015,03,28,16,43,10.00
2015,03,28,16,44,10.00
2015,03,28,16,45,10.00
2015,03,28,16,46,10.00
2015,03,28,16,47,10.00
2015,03,28,16,48,10.00
2015,03,28,16,49,10.00
2015,03,28,16,50,9.90
2015,03,28,16,51,9.90
2015,03,28,16,52,9.90
2015,03,28,16,53,9.90
2015,03,28,16,54,9.90
2015,03,28,16,55,9.90
2015,03,28,16,56,9.90
2015,03,28,16,57,9.90
2015,03,28,16,58,9.90
2015,03,28,16,59,9.90
2015,03,28,17,00,9.90
2015,03,28,17,01,9.90
2015,03,28,17,02,9.90
2015,03,28,17,03,9.90
2015,03,28,17,04,9.90
2015,03,28,17,05,9.90
2015,03,28,17,06,9.90
2015,03,28,17,07,9.90
2015,03,28,17,08,9.90
2015,03,28,17,09,9.90
2015,03,28,17,10,9.90
2015,03,28,17,11,9.90
2015,03,28,17,12,9.90
2015,03,28,17,13,9.90
2015,03,28,17,14,9.90
2015,03,28,17,15,9.90
2015,03,28,17,16,9.90
2015,03,28,17,17,9.90
2015,03,28,17,18,9.90
2015,03,28,17,19,9.90
2015,03,28,17,20,9.90
2015,03,28,17,21,9.90
2015,03,28,17,22,9.80
2015,03,28,17,23,9.80
2015,03,28,17,24,9.80
2015,03,28,17,25,9.80
2015,03,28,17,26,9.80
2015,03,28,17,27,9.70
2015,03,28,17,28,9.70
2015,03,28,17,29,9.70
2015,03,28,17,30,9.60
2015,03,28,17,31,9.60
2015,03,28,17,32,9.60
2015,03,28,17,33,9.50
2015,03,28,17,34,9.50
2015,03,28,17,35,9.50
2015,03,28,17,36,9.50